Aérodrome :
LOGIN :

S'inscrire | Disclaimer

   EN    FR    IT 

 










Légende :    VFR   VFR Marginal   IFR   IFR Intensif   IFR Très Intensif
Visi : 
Plafond : 
>= 8 km
>= 3000ft
5 à 8 km
1000 à 3000 ft
1500m à 5 km
500 à 1000 ft
800 à 1500m
200 à 500 ft
< 800m
< 200 ft
Symboles :   Orages  Brouillard  Fortes neiges  Fortes précipitations  Vent > 20 kt
SIGMETs :   Divers  Orages  Givrage  Turbulence  Onde Orograph.  Cendres Volcan.







- Altitude de l'aérodrome : 42 ft
- Code IATA : LMO


EGQS - Lossiemouth

DERNIER METAR :
  • 190250Z 14003KT 9999 -RA SCT017 BKN040 OVC070 05/05 Q1012 RERA WHT

METARs EXPIRÉS :
  • 190150Z 13004KT 6000 RA BKN016 OVC024 05/05 Q1012 WHT
  • 190050Z 13004KT 9999 -RA BKN020 BKN040 OVC070 05/04 Q1012 WHT

TAF TAF EGQS
Valide du 19 à 03h jusqu'au 19 à 21h UTC


190133Z 1903/1921 VRB05KT 9999 SCT025 BKN040
TEMPO 1903/1916 6000 -RA BKN018
PROB30
TEMPO 1906/1914 2500 -RADZ SCT006 BKN015
Pas de NOTAMs connus pour ce terrain.



MET'MAP, la Météo Aéronautique d'un coup d'oeil ! - Copyright ORBIFLY Décembre 2007 - Disclaimer

ORBIFLY MET'MAP TEAM :

Programmation & Développement : Alexandra Zaïnal
Conception & Développement : Baudouin d'Aumeries
Co-Programmation & Développement : Marc-Olivier Méhu
Soutien technique & logistique : Manuel Goepfert

Contact : metmap@orbifly.com




SOURCES & CREDITS :

   NOAA